[[{"header":{"parameterUnit":"m.s-1","parameterCategory":1,"la1":30.2991,"la2":30.254,"lo1":-89.0895,"lo2":-89.0444,"dy":0.0017,"dx":0.0017,"nx":28,"ny":28,"refTime":"2023-07-20T09:00:00:Z","depth":0,"parameterNumber":2,"parameterNumberName":"U-component_of_WINDS"},"data":[0,0,0,0,0,0,0,0,0,0,0,0,0,0,0,0,0,0,0,0,0,0,0,0,0,0,0,0,0,0,0,0,0,0,0,0,0,0,0,0,0,0,0,0,0,0,0,0,0,0,0,0,0,0,0,0,0,0,2.4255,2.4255,0,2.4285,2.4285,2.4286,2.4292,2.4291,2.4291,2.4291,2.4322,2.4323,2.4324,0,0,0,0,0,0,0,0,0,0,0,0,0,2.4203,2.4204,2.4255,2.4255,2.4256,2.4285,2.4285,2.4286,2.4292,2.4291,2.4291,2.4291,2.4321,2.4323,2.4324,0,0,0,0,0,0,0,0,0,0,0,0,0,2.4229,2.4204,2.4255,2.4262,2.4263,2.4285,2.4285,2.4286,2.4292,2.4291,2.4291,2.4291,2.4321,2.4322,2.4324,2.4341,0,0,2.4329,2.4329,0,0,0,0,0,0,0,0,2.4227,2.4231,2.4261,2.4262,2.4263,2.4284,2.4278,2.4304,2.4292,2.4281,2.4291,2.4291,2.4309,2.4312,2.4318,2.4342,2.4343,2.4329,2.433,2.433,2.4331,0,0,0,0,0,0,0,2.4225,2.4229,2.4267,2.4261,2.4262,2.4264,2.4267,2.4283,2.4297,2.4282,2.4282,2.4286,2.431,2.4317,2.4319,2.4344,2.4329,2.433,2.4331,2.4332,2.4384,2.4384,0,0,0,0,0,0,2.4222,2.4228,2.4266,2.4268,2.4244,2.4265,2.4269,2.4278,2.4297,2.4299,2.4286,2.4286,2.4314,2.4317,2.432,2.4342,2.433,2.4332,2.4333,2.4383,2.4384,2.4384,0,0,0,0,0,0,2.4221,2.4226,2.4265,2.4248,2.4253,2.4267,2.4276,2.4279,2.4285,2.43,2.4302,2.4291,2.4314,2.4318,2.4336,2.4343,2.4333,2.4334,2.4383,2.4383,2.4384,2.4384,0,0,0,0,0,0,2.422,2.4225,2.4231,2.4248,2.4254,2.428,2.4277,2.4279,2.4288,2.4288,2.4305,2.4307,2.4314,2.4333,2.4337,2.4345,2.4335,2.4382,2.4383,2.4384,2.4384,2.4385,2.4386,0,0,0,0,0,2.4218,2.423,2.4232,2.4236,2.4262,2.428,2.4283,2.4291,2.4289,2.4295,2.4305,2.4307,2.4341,2.4335,2.434,2.4348,2.4382,2.4383,2.4384,2.4383,2.4385,2.4386,0,0,0,0,0,0,2.4214,2.4232,2.4234,2.4252,2.4265,2.4281,2.4289,2.4292,2.4305,2.4305,2.4314,2.4318,2.4335,2.4343,2.4336,2.4365,2.4361,2.4363,2.4359,2.4361,2.4362,2.436,2.4336,0,0,0,0,0,2.4215,2.4228,2.4243,2.4258,2.4264,2.4276,2.4284,2.4289,2.4302,2.4307,2.4318,2.433,2.4344,2.4353,2.4366,2.4385,2.4389,2.4393,2.4394,2.4394,2.4396,2.4407,2.4409,2.4387,2.4387,2.4387,0,0,2.4218,2.4229,2.4237,2.4257,2.4267,2.4281,2.428,2.4294,2.4304,2.4309,2.4327,2.4335,2.435,2.4368,2.4377,2.4375,2.4403,2.4396,2.4396,2.4398,2.4409,2.4411,2.4413,2.4388,2.4388,2.4388,0,0,2.4229,2.4239,2.4253,2.4263,2.4279,2.4286,2.429,2.4306,2.4312,2.4329,2.4334,2.4346,2.4369,2.438,2.4388,2.4405,2.4407,2.4409,2.4415,2.4426,2.4427,2.4429,2.4436,2.4438,2.4411,2.4411,2.4411,0,2.4231,2.4251,2.4259,2.4274,2.4283,2.4288,2.4302,2.4312,2.4331,2.4337,2.4335,2.4365,2.4375,2.4397,2.4401,2.4407,2.4412,2.4407,2.4426,2.4428,2.443,2.4436,2.4439,2.4411,2.4411,2.4411,2.4411,0,2.4252,2.4267,2.4276,2.4294,2.4304,2.4318,2.4329,2.4339,2.4343,2.4351,2.437,2.4382,2.4399,2.4404,2.4408,2.4426,2.4425,2.4425,2.4421,2.4432,2.4438,2.4441,2.4411,2.4411,2.4411,2.4411,0,0,2.4262,2.4286,2.4289,2.4298,2.4316,2.4327,2.4341,2.4358,2.4366,2.4379,2.4392,2.4412,2.4412,2.4421,2.4427,2.4436,2.445,2.4435,2.4436,2.4438,2.4472,2.4472,2.4475,2.4452,2.4452,2.4453,2.4471,0,2.4277,2.4303,2.4311,2.4333,2.4347,2.4353,2.4365,2.4378,2.4386,2.4399,2.4408,2.4422,2.4421,2.4427,2.4436,2.4446,2.4457,2.4445,2.4464,2.4465,2.4461,2.4478,2.4478,2.4495,2.4473,2.4473,2.4474,0,2.4297,2.4311,2.4334,2.4351,2.4357,2.4369,2.4385,2.4397,2.4411,2.4417,2.4428,2.4433,2.4448,2.4444,2.4466,2.4458,2.4466,2.4472,2.4473,2.4476,2.447,2.4481,2.45,2.4503,2.4477,2.4477,2.4477,0,2.4303,2.4327,2.4345,2.4352,2.4372,2.438,2.4389,2.4403,2.4412,2.4426,2.4433,2.4448,2.4457,2.4469,2.4478,2.4474,2.45,2.4496,2.4506,2.4505,2.4511,2.4511,2.4532,2.4515,2.4515,2.4515,2.4515,0,2.4318,2.4333,2.4348,2.4359,2.4375,2.4385,2.4401,2.441,2.4422,2.4435,2.4441,2.4453,2.4464,2.4477,2.4485,2.4503,2.4506,2.4511,2.4513,2.4511,2.4511,2.4517,2.4516,2.4516,2.4516,2.4516,2.4516,0,2.4328,2.4338,2.4358,2.4375,2.438,2.4392,2.4407,2.4418,2.4426,2.4442,2.4447,2.446,2.4477,2.4487,2.4507,2.4512,2.4532,2.4533,2.4527,2.4528,2.4538,2.4537,2.4564,2.4568,2.4548,2.4549,2.4549,0,2.4337,2.4349,2.4368,2.4377,2.4386,2.44,2.441,2.442,2.443,2.4448,2.4457,2.4474,2.4488,2.4514,2.4525,2.4541,2.4543,2.4552,2.4546,2.4544,2.4544,2.4544,2.4545,2.4553,2.4553,2.4553,2.4553,0,2.4353,2.4358,2.4373,2.4389,2.4401,2.4414,2.4427,2.4435,2.4447,2.4458,2.4475,2.4486,2.4508,2.4524,2.4542,2.4551,2.4554,2.4555,2.4558,2.4557,2.4553,2.4556,2.4531,2.4555,2.4554,2.4554,2.4554,2.4554,2.4364,2.4374,2.439,2.4406,2.4417,2.4429,2.4441,2.4451,2.4465,2.4484,2.4489,2.4506,2.4521,2.4545,2.4554,2.4569,2.4568,2.4572,2.4573,2.4574,2.4575,2.455,2.4572,2.4572,2.4572,2.4572,2.4572,0,2.4381,2.4391,2.4406,2.4424,2.4437,2.4439,2.4454,2.4465,2.4481,2.4494,2.4508,2.4528,2.4544,2.4558,2.4575,2.4584,2.4586,2.4588,2.4588,2.459,2.4574,2.457,2.4586,2.4586,2.4586,2.4586,2.4586,2.4586,2.4391,2.441,2.4416,2.4441,2.4451,2.4469,2.4477,2.4489,2.45,2.4522,2.4536,2.4544,2.4558,2.4576,2.4591,2.4595,2.4601,2.4603,2.4607,2.4592,2.4591,2.4589,2.4586,2.4604,2.4604,2.4621,2.4622,2.4622]},{"header":{"parameterUnit":"m.s-1","parameterCategory":1,"la1":30.2991,"la2":30.254,"lo1":-89.0895,"lo2":-89.0444,"dy":0.0017,"dx":0.0017,"nx":28,"ny":28,"refTime":"2023-07-20T09:00:00:Z","depth":0,"parameterNumber":3,"parameterNumberName":"V-component_of_WINDS"},"data":[0,0,0,0,0,0,0,0,0,0,0,0,0,0,0,0,0,0,0,0,0,0,0,0,0,0,0,0,0,0,0,0,0,0,0,0,0,0,0,0,0,0,0,0,0,0,0,0,0,0,0,0,0,0,0,0,0,0,-0.2613,-0.2613,0,-0.2629,-0.2629,-0.2629,-0.2634,-0.2634,-0.2634,-0.2633,-0.2649,-0.265,-0.265,0,0,0,0,0,0,0,0,0,0,0,0,0,-0.2587,-0.2587,-0.2613,-0.2613,-0.2613,-0.2629,-0.2629,-0.2629,-0.2634,-0.2634,-0.2634,-0.2633,-0.2649,-0.265,-0.265,0,0,0,0,0,0,0,0,0,0,0,0,0,-0.26,-0.2587,-0.2613,-0.2617,-0.2618,-0.2629,-0.2629,-0.2629,-0.2634,-0.2634,-0.2634,-0.2633,-0.2649,-0.265,-0.2651,-0.2658,0,0,-0.2653,-0.2653,0,0,0,0,0,0,0,0,-0.2599,-0.2601,-0.2616,-0.2617,-0.2618,-0.2629,-0.2626,-0.2639,-0.2634,-0.2628,-0.2633,-0.2633,-0.2643,-0.2644,-0.2647,-0.2658,-0.2659,-0.2653,-0.2653,-0.2654,-0.2654,0,0,0,0,0,0,0,-0.2598,-0.26,-0.2619,-0.2617,-0.2617,-0.2619,-0.2621,-0.2628,-0.2636,-0.2628,-0.2629,-0.263,-0.2643,-0.2647,-0.2648,-0.2659,-0.2653,-0.2654,-0.2654,-0.2654,-0.2679,-0.2679,0,0,0,0,0,0,-0.2597,-0.2599,-0.2618,-0.2619,-0.2608,-0.2619,-0.2621,-0.2626,-0.2636,-0.2637,-0.2631,-0.2631,-0.2645,-0.2647,-0.2648,-0.2658,-0.2654,-0.2654,-0.2655,-0.2678,-0.2679,-0.2679,0,0,0,0,0,0,-0.2596,-0.2598,-0.2618,-0.261,-0.2612,-0.262,-0.2625,-0.2626,-0.2629,-0.2637,-0.2639,-0.2633,-0.2645,-0.2647,-0.2656,-0.2659,-0.2655,-0.2655,-0.2678,-0.2678,-0.2679,-0.2677,0,0,0,0,0,0,-0.2595,-0.2598,-0.2601,-0.261,-0.2613,-0.2625,-0.2625,-0.2626,-0.2631,-0.2631,-0.264,-0.2641,-0.2645,-0.2654,-0.2656,-0.266,-0.2656,-0.2678,-0.2678,-0.2679,-0.2677,-0.2678,-0.2678,0,0,0,0,0,-0.2594,-0.2599,-0.2601,-0.2603,-0.2616,-0.2625,-0.2627,-0.2631,-0.2631,-0.2634,-0.2639,-0.2641,-0.2658,-0.2655,-0.2657,-0.2661,-0.2678,-0.2678,-0.2679,-0.2677,-0.2678,-0.2678,0,0,0,0,0,0,-0.259,-0.26,-0.2602,-0.261,-0.2617,-0.2626,-0.2629,-0.2632,-0.2638,-0.2638,-0.2644,-0.2646,-0.2654,-0.2658,-0.2655,-0.2669,-0.2668,-0.2669,-0.2666,-0.2667,-0.2667,-0.2666,-0.2657,0,0,0,0,0,-0.259,-0.2596,-0.2605,-0.2611,-0.2614,-0.2621,-0.2625,-0.2629,-0.2636,-0.2638,-0.2644,-0.2651,-0.2658,-0.2663,-0.2669,-0.2678,-0.268,-0.2682,-0.2682,-0.2682,-0.2683,-0.2689,-0.269,-0.268,-0.268,-0.268,0,0,-0.259,-0.2596,-0.26,-0.261,-0.2616,-0.2623,-0.2624,-0.263,-0.2636,-0.2639,-0.2648,-0.2653,-0.2661,-0.2669,-0.2674,-0.2673,-0.2686,-0.2683,-0.2683,-0.2684,-0.2689,-0.269,-0.2691,-0.2681,-0.268,-0.268,0,0,-0.2593,-0.2598,-0.2605,-0.261,-0.2619,-0.2624,-0.2625,-0.2634,-0.2638,-0.2646,-0.265,-0.2656,-0.2668,-0.2674,-0.2678,-0.2685,-0.2688,-0.2687,-0.2689,-0.2695,-0.2696,-0.2697,-0.27,-0.2701,-0.2688,-0.2688,-0.2688,0,-0.2592,-0.2602,-0.2607,-0.2614,-0.2619,-0.2624,-0.2631,-0.2636,-0.2646,-0.2649,-0.2649,-0.2665,-0.267,-0.2681,-0.2683,-0.2686,-0.2689,-0.2686,-0.2695,-0.2696,-0.2697,-0.27,-0.2701,-0.2688,-0.2688,-0.2688,-0.2688,0,-0.26,-0.2607,-0.2612,-0.2622,-0.2627,-0.2634,-0.2641,-0.2646,-0.2649,-0.2654,-0.2664,-0.2671,-0.268,-0.2683,-0.2685,-0.2694,-0.2694,-0.2694,-0.2693,-0.2698,-0.2701,-0.2702,-0.2688,-0.2688,-0.2688,-0.2688,0,0,-0.26,-0.2615,-0.2616,-0.2622,-0.2632,-0.2638,-0.2645,-0.2654,-0.2659,-0.2666,-0.2673,-0.2683,-0.2684,-0.2689,-0.2693,-0.2698,-0.2705,-0.2698,-0.2698,-0.27,-0.2716,-0.2716,-0.2717,-0.2706,-0.2706,-0.2706,-0.2715,0,-0.2605,-0.2619,-0.2625,-0.2636,-0.2643,-0.2648,-0.2655,-0.2662,-0.2667,-0.2674,-0.268,-0.2688,-0.2688,-0.2691,-0.2696,-0.2703,-0.2708,-0.2702,-0.2713,-0.2713,-0.2711,-0.2718,-0.2718,-0.2726,-0.2717,-0.2717,-0.2717,0,-0.2613,-0.2621,-0.2633,-0.2644,-0.2647,-0.2653,-0.2662,-0.2669,-0.2678,-0.2681,-0.2688,-0.2691,-0.27,-0.2698,-0.2711,-0.2707,-0.2712,-0.2716,-0.2716,-0.2717,-0.2715,-0.2721,-0.2729,-0.273,-0.2719,-0.2719,-0.2718,0,-0.2613,-0.2626,-0.2636,-0.264,-0.2652,-0.2657,-0.2662,-0.2671,-0.2676,-0.2685,-0.2689,-0.2698,-0.2703,-0.271,-0.2716,-0.2714,-0.2728,-0.2727,-0.2732,-0.2732,-0.2735,-0.2734,-0.2744,-0.2737,-0.2737,-0.2737,-0.2737,0,-0.2618,-0.2625,-0.2636,-0.2642,-0.265,-0.2657,-0.2666,-0.2671,-0.2679,-0.2687,-0.2691,-0.2698,-0.2706,-0.2714,-0.2719,-0.2729,-0.2731,-0.2734,-0.2736,-0.2734,-0.2734,-0.2738,-0.2737,-0.2737,-0.2737,-0.2737,-0.2737,0,-0.2619,-0.2626,-0.2637,-0.2648,-0.2651,-0.2657,-0.2667,-0.2673,-0.2679,-0.2688,-0.2691,-0.27,-0.271,-0.2717,-0.2729,-0.2733,-0.2744,-0.2745,-0.2741,-0.2742,-0.2746,-0.2746,-0.2759,-0.2762,-0.2752,-0.2753,-0.2753,0,-0.2622,-0.2628,-0.264,-0.2646,-0.2651,-0.2659,-0.2666,-0.2673,-0.2679,-0.269,-0.2695,-0.2705,-0.2714,-0.2729,-0.2737,-0.2747,-0.2749,-0.2753,-0.275,-0.2749,-0.275,-0.2749,-0.275,-0.2753,-0.2753,-0.2753,-0.2753,0,-0.2626,-0.263,-0.2639,-0.2649,-0.2656,-0.2664,-0.2673,-0.2677,-0.2686,-0.2693,-0.2703,-0.271,-0.2723,-0.2733,-0.2744,-0.275,-0.2754,-0.2754,-0.2756,-0.2754,-0.2752,-0.2754,-0.2742,-0.2754,-0.2754,-0.2754,-0.2754,-0.2753,-0.2629,-0.2635,-0.2645,-0.2655,-0.2662,-0.267,-0.2677,-0.2684,-0.2693,-0.2704,-0.2708,-0.2719,-0.2729,-0.2744,-0.275,-0.2759,-0.2759,-0.2761,-0.2762,-0.2763,-0.2763,-0.2751,-0.2761,-0.2761,-0.2761,-0.2761,-0.2761,0,-0.2634,-0.2641,-0.265,-0.2662,-0.267,-0.2673,-0.2683,-0.2689,-0.2699,-0.2708,-0.2717,-0.2729,-0.274,-0.2749,-0.276,-0.2765,-0.2767,-0.2768,-0.2768,-0.2769,-0.2762,-0.276,-0.2766,-0.2766,-0.2766,-0.2766,-0.2766,-0.2766,-0.2638,-0.2649,-0.2654,-0.2668,-0.2675,-0.2686,-0.2692,-0.27,-0.2707,-0.2721,-0.273,-0.2736,-0.2745,-0.2757,-0.2767,-0.277,-0.2774,-0.2774,-0.2777,-0.277,-0.277,-0.2769,-0.2767,-0.2775,-0.2775,-0.2784,-0.2784,-0.2784]}]]